Theta_e
285 285 285 285 285 284 284 284 283 283 283 283 282 281 281 281 280 279 279 278 278 277 277 276 276 276 276 276 275 275 274 274 274 273 274 273 274 274 273 273 272 272 273 273 273 273 273 273 273 274 274 274 274 274 274 274 274 274 274 274 274 274 274 273 272 272 274 276 276 276 276 276 275 276 275 276 276 277 279 278 278 278 278 278 278
284 284 284 285 284 284 283 283 283 282 282 281 281 280 280 280 279 278 278 277 277 277 276 277 276 275 275 275 274 274 273 273 273 273 273 273 272 274 274 272 271 271 272 271 272 274 273 272 273 273 273 273 273 273 273 273 273 273 273 273 273 273 273 272 271 271 270 273 273 275 274 276 274 276 274 274 275 276 275 276 277 277 276 276 277
284 284 284 284 283 283 282 282 282 281 280 280 280 280 279 279 278 278 277 277 276 277 277 276 276 275 274 274 274 273 273 272 272 272 272 272 271 271 272 271 271 271 271 271 272 272 272 272 272 273 274 273 273 273 273 273 273 272 272 273 272 272 272 272 271 269 270 270 272 272 273 273 273 273 274 275 275 275 274 274 275 276 276 276 276
284 284 284 284 282 282 282 281 281 280 280 280 280 279 279 278 278 277 277 277 276 276 276 275 274 274 274 273 273 272 272 272 271 271 272 271 270 271 270 270 271 271 271 271 271 272 271 271 272 272 272 272 272 272 272 272 272 272 272 272 272 272 272 272 272 270 270 269 271 271 272 272 272 274 274 274 274 274 274 274 274 274 275 276 276
284 283 284 283 282 281 281 280 280 280 280 280 279 279 279 277 277 276 276 276 275 275 274 273 273 273 273 272 272 271 271 271 271 271 271 270 270 270 270 270 270 271 271 271 273 271 271 271 271 272 272 271 271 271 272 271 272 272 272 272 272 272 272 272 272 272 271 269 270 271 272 272 273 273 273 272 272 273 273 273 273 274 274 275 275
283 283 283 283 282 281 280 280 280 280 280 280 279 278 277 276 275 275 275 275 274 273 273 272 272 272 272 271 271 271 270 270 270 270 270 270 270 270 270 271 271 271 271 271 271 271 271 271 271 272 271 271 271 271 271 271 272 272 272 273 273 273 273 273 273 272 271 270 270 270 271 271 271 271 272 272 271 271 271 272 273 273 273 273 274
283 283 283 282 281 281 280 280 281 280 280 279 278 277 277 275 275 274 274 274 274 273 272 271 271 271 271 271 271 271 271 270 270 270 269 270 270 270 271 271 271 271 271 271 271 271 271 271 271 271 271 271 271 271 272 272 273 272 273 273 273 272 272 272 272 271 271 270 270 270 270 271 271 269 271 272 272 271 270 270 270 272 273 272 272
283 283 282 281 281 281 281 281 280 280 279 278 277 276 275 274 274 274 274 273 272 272 271 271 271 271 271 270 270 270 270 269 269 269 269 269 269 271 271 271 270 270 271 271 271 271 271 271 271 271 271 271 272 273 273 272 272 272 272 272 272 272 271 271 271 271 270 269 269 269 269 269 270 271 272 272 270 270 271 270 269 270 271 272 273
283 283 281 281 281 281 281 280 280 279 278 277 275 274 274 275 274 273 272 272 272 271 271 271 270 270 270 270 269 270 270 270 269 269 268 270 271 271 271 271 270 270 270 270 270 270 270 270 271 271 272 274 275 274 274 274 272 271 271 272 271 271 271 271 271 271 270 270 269 270 269 269 270 270 270 270 270 269 271 271 270 271 272 272 273
282 281 281 281 281 281 281 280 279 278 277 276 275 274 273 274 273 273 273 272 271 270 269 270 270 269 269 268 269 269 269 269 272 275 277 272 271 272 272 272 272 271 271 270 270 270 270 270 270 273 273 273 273 273 274 274 274 273 272 271 271 271 270 270 270 270 270 269 269 269 268 269 269 270 270 271 272 273 272 272 271 271 272 271 272
282 282 282 282 281 281 280 279 278 277 276 276 275 274 274 273 272 272 271 270 270 270 269 269 269 269 268 268 268 269 269 270 274 276 277 277 273 273 272 272 272 271 271 270 270 270 270 270 269 270 270 270 270 273 273 273 273 274 274 274 274 272 270 269 269 270 269 269 269 269 269 269 270 271 271 272 272 272 272 272 271 271 270 269 269
282 281 281 281 280 280 279 279 278 277 276 275 274 274 273 273 272 270 269 269 268 268 268 269 268 268 268 267 267 268 268 272 275 276 276 276 276 274 273 272 271 271 271 270 270 269 268 267 268 268 268 269 270 270 270 272 273 274 274 275 275 276 276 273 271 270 270 269 269 270 270 270 270 271 271 271 271 271 272 272 272 271 271 270 271
281 281 281 280 280 279 279 278 277 276 276 275 274 273 272 272 271 270 269 268 268 267 268 268 267 267 267 267 266 267 266 272 274 275 275 275 276 275 273 272 272 271 270 269 268 268 268 267 267 268 268 271 270 269 268 268 272 274 274 275 275 276 276 277 277 274 273 272 270 270 270 271 270 271 272 272 273 271 272 272 272 272 272 271 272
281 281 280 280 280 279 279 278 277 276 275 274 272 272 271 271 271 270 268 268 267 267 265 266 267 266 266 265 265 266 266 270 274 275 275 275 275 275 273 271 270 269 268 268 268 268 268 267 267 267 268 268 268 269 269 270 270 270 270 271 271 272 275 276 277 277 276 273 271 270 272 272 271 272 273 274 273 272 272 271 272 272 272 272 273
281 280 280 280 279 278 278 277 276 275 274 273 272 271 271 270 270 269 268 268 267 267 266 265 265 264 264 264 264 264 265 271 273 274 274 274 275 274 270 270 269 268 269 269 269 268 268 268 267 267 267 268 268 270 271 272 272 272 272 272 273 273 273 273 273 273 273 273 273 272 273 274 274 274 274 275 274 274 274 273 273 272 273 274 274
281 280 280 279 278 278 278 277 276 274 273 271 271 271 270 269 269 268 266 266 264 264 264 264 264 264 264 262 263 263 263 271 272 273 273 273 274 270 269 268 268 268 268 268 268 268 268 268 267 267 268 269 271 275 275 274 274 273 273 273 274 274 274 276 277 277 276 275 275 275 275 276 277 276 276 275 274 273 273 273 273 272 271 269 269
280 280 279 279 278 278 278 277 275 273 272 271 270 270 269 268 267 266 266 267 266 265 264 263 263 263 262 262 262 262 262 267 270 271 272 273 273 269 269 268 268 267 267 267 267 268 268 268 268 268 269 270 273 276 277 277 274 273 273 272 272 272 271 272 275 276 277 278 278 278 278 277 277 277 277 277 274 273 271 269 268 269 267 266 267
281 280 279 279 278 278 278 277 274 272 271 270 270 269 268 266 266 266 266 265 265 264 263 262 261 261 262 261 262 260 259 265 269 271 272 273 272 270 269 268 267 267 266 267 268 269 269 272 272 271 271 271 275 277 277 276 274 273 272 271 269 268 269 271 272 273 275 274 273 273 273 273 274 274 273 274 275 273 268 265 266 267 266 266 265
280 280 280 279 278 278 277 276 274 272 271 270 269 268 266 266 266 265 264 265 264 263 262 262 260 259 260 261 265 263 259 263 269 270 271 272 272 270 269 267 266 266 267 267 269 270 270 271 273 273 274 274 276 276 277 276 273 273 270 268 266 267 268 271 270 268 268 267 266 266 267 268 268 267 268 272 273 271 268 267 267 266 264 265 265
281 280 279 278 277 276 275 274 273 271 269 268 266 267 265 264 264 264 263 263 262 262 262 261 260 260 259 259 260 261 261 259 262 269 270 272 273 271 269 268 267 266 268 269 269 270 271 271 272 274 275 275 276 277 277 277 274 271 268 266 266 267 271 268 267 267 265 264 264 264 265 265 266 266 267 267 268 268 269 268 268 266 265 265 265
279 278 276 275 273 273 272 272 270 269 268 267 266 265 264 265 264 263 262 261 261 260 261 260 259 259 258 260 259 259 260 259 261 269 270 272 273 273 270 269 269 269 269 269 270 269 270 270 268 272 274 275 276 277 276 276 275 270 267 267 270 273 273 266 265 268 264 263 263 263 263 264 264 265 265 266 266 267 267 268 268 268 267 265 264
276 274 273 273 271 270 270 268 268 267 265 265 264 263 262 263 263 262 261 261 261 260 259 259 259 259 258 259 259 259 261 265 261 267 270 272 273 274 271 271 271 270 270 270 271 271 270 268 265 271 274 276 276 276 276 275 274 269 270 274 275 274 270 266 263 262 261 262 262 262 262 262 263 263 264 265 266 266 267 267 268 268 268 268 266
274 273 272 271 269 268 267 266 265 264 264 264 264 263 261 261 260 260 260 260 260 259 259 259 258 258 258 258 259 260 260 261 268 265 269 272 273 274 274 273 274 274 272 271 271 270 268 267 270 273 275 275 275 275 274 274 271 271 274 274 274 273 268 262 262 261 261 261 261 261 262 262 262 263 264 265 266 267 267 267 267 268 267 268 268
272 271 270 269 267 266 264 264 263 263 263 263 262 262 261 260 259 260 260 260 259 258 258 258 257 257 258 259 259 260 261 260 265 269 269 272 273 274 274 275 275 273 273 272 271 270 268 269 271 274 275 274 274 273 273 272 270 273 273 273 272 269 263 261 260 261 261 261 261 261 262 262 263 264 265 266 267 267 268 267 267 267 267 267 267
271 269 268 266 265 263 262 262 261 261 262 262 262 261 260 259 259 258 258 259 259 258 258 258 258 258 258 258 259 260 261 261 260 265 270 271 272 273 274 274 275 275 273 271 271 270 272 274 274 274 273 273 273 272 270 269 271 272 271 271 268 262 261 260 260 260 260 261 261 262 262 263 264 265 267 268 268 268 267 267 267 267 266 266 266
269 268 266 264 263 261 261 259 259 260 260 261 262 262 261 260 260 259 258 259 258 258 258 258 257 258 258 259 260 261 262 262 262 261 266 269 270 272 273 273 273 274 274 273 273 274 273 273 273 273 272 270 268 264 264 265 269 269 268 267 261 260 259 260 260 260 260 261 262 262 263 265 265 266 267 267 266 266 266 266 266 266 266 266 266
269 266 265 263 261 261 262 260 259 259 258 259 258 260 260 260 260 259 259 259 258 258 258 259 259 258 258 259 259 259 261 262 262 261 261 261 261 265 266 266 271 273 272 268 271 268 270 271 271 271 269 270 269 268 267 266 263 262 260 259 258 260 260 259 261 261 261 261 262 264 265 265 266 265 265 265 264 265 266 266 265 266 266 266 266
269 266 264 262 261 261 261 261 260 259 258 259 259 259 259 259 260 260 260 260 259 259 259 259 260 260 260 259 258 258 260 262 262 261 262 261 262 263 264 266 267 269 270 268 267 269 269 269 266 261 260 258 259 257 257 257 259 260 258 258 259 260 263 264 265 261 261 263 264 265 265 265 264 264 264 264 264 264 265 265 265 265 266 266 265
263 262 261 261 260 260 260 260 260 259 258 258 259 260 260 260 260 261 262 261 262 261 261 261 261 261 261 260 260 260 261 262 262 266 264 267 266 265 266 268 269 270 272 273 271 268 266 264 261 259 255 257 257 256 256 257 258 258 256 258 258 259 259 257 259 260 261 263 264 265 265 264 264 264 264 263 263 264 265 265 266 265 265 265 264
263 262 261 260 259 260 260 259 259 259 259 259 259 259 263 265 263 262 262 266 268 269 268 262 263 262 261 262 263 263 263 263 268 270 271 272 272 273 272 273 274 273 273 274 273 265 262 260 259 256 256 255 255 256 257 256 257 258 257 261 260 258 259 259 259 260 262 263 264 265 265 264 263 264 263 263 263 263 264 266 264 265 264 263 263
263 261 261 261 260 260 260 259 259 259 260 260 260 260 260 264 269 269 268 267 269 271 271 271 270 268 264 262 264 269 269 270 271 272 272 273 273 274 274 274 274 274 274 272 268 265 262 259 258 255 255 254 254 256 256 256 256 257 257 258 257 259 260 259 260 261 262 263 264 265 265 264 263 263 262 262 262 263 263 264 264 264 263 263 263
265 263 261 261 261 261 261 261 261 261 261 261 260 261 261 260 262 269 271 270 270 271 272 273 273 272 271 268 265 265 270 272 273 273 273 274 274 273 273 274 274 274 274 273 266 262 258 257 255 255 254 254 255 256 255 255 256 255 256 257 258 258 259 259 261 261 261 262 263 264 264 263 263 263 262 262 263 262 262 263 263 263 263 263 263
265 263 262 261 262 262 262 262 262 262 261 261 261 262 261 262 261 262 267 272 272 272 272 273 273 273 273 273 272 269 269 271 273 273 273 273 273 273 273 274 274 274 273 267 260 259 255 254 254 254 254 255 255 253 254 254 255 256 255 256 257 259 259 260 262 261 261 262 263 263 263 263 263 262 262 262 262 261 262 262 263 263 263 263 263
265 264 263 263 263 263 263 262 262 262 262 262 262 262 262 263 263 263 263 265 268 271 273 273 273 273 274 274 274 274 274 274 274 274 273 273 273 273 273 272 273 274 271 263 261 260 258 255 255 254 254 254 254 254 255 254 255 256 256 257 258 258 259 260 260 259 261 263 262 262 262 263 263 262 262 262 262 262 261 262 262 262 262 263 263
262 263 263 263 264 263 263 263 263 262 262 262 262 262 262 263 263 263 263 263 264 264 264 265 269 272 271 272 273 274 274 274 274 273 273 273 273 273 273 267 264 262 259 254 256 255 255 255 255 255 253 254 254 254 254 253 254 255 256 256 257 258 259 259 259 260 261 262 261 260 261 262 261 261 262 261 261 261 261 262 262 262 262 263 263
261 261 261 261 262 263 263 263 262 262 262 262 262 262 262 262 261 261 261 261 262 262 261 262 261 264 267 269 271 271 272 272 272 272 272 272 272 272 267 263 261 260 258 255 253 254 254 254 254 255 253 254 254 254 254 254 254 255 254 255 257 257 257 257 259 260 262 260 260 260 261 262 262 261 261 261 261 261 261 261 262 263 263 263 263
260 260 260 260 261 262 262 262 262 262 263 262 261 261 261 261 261 261 260 260 259 260 260 260 259 260 263 261 262 266 269 270 271 271 272 271 272 269 266 264 262 258 255 255 253 253 253 254 254 253 253 254 254 254 254 254 254 254 256 257 256 257 257 258 260 261 260 259 259 259 259 261 262 261 261 261 261 261 261 262 262 262 263 263 263
259 259 259 259 260 261 261 260 261 263 261 261 261 261 261 261 260 260 259 259 259 259 258 258 259 258 258 258 261 259 259 266 268 268 268 268 265 260 260 260 258 258 258 254 252 252 253 253 251 252 253 252 253 253 253 253 253 253 254 255 257 258 261 260 260 259 259 259 259 259 259 260 261 260 261 261 261 261 261 261 261 261 262 262 262
257 261 262 262 262 258 258 259 260 260 259 260 260 260 259 259 259 259 259 258 258 258 258 257 257 257 258 257 254 256 258 255 255 256 256 256 256 257 257 257 256 255 253 254 252 253 252 254 253 252 253 252 254 253 252 253 252 253 253 254 256 257 258 257 256 256 258 258 259 259 260 260 261 260 261 261 261 261 260 261 261 261 261 261 261
258 258 262 263 261 261 258 258 258 258 259 259 259 259 259 259 259 259 258 258 257 257 257 257 256 257 257 254 254 253 253 256 255 255 255 254 254 253 253 254 253 253 254 254 252 251 252 253 253 252 253 252 252 253 251 252 252 253 253 254 255 256 257 256 256 256 256 257 258 259 260 261 261 260 260 261 261 261 260 260 260 261 261 261 261
258 260 261 262 260 259 257 257 257 258 259 259 259 259 259 259 259 259 258 257 257 257 256 256 256 257 257 258 262 262 257 256 256 256 256 256 254 253 252 252 253 252 252 253 254 252 253 253 253 253 252 252 252 253 252 252 252 252 252 254 255 257 256 255 255 255 256 257 259 260 261 261 261 260 260 261 263 262 260 260 259 260 260 261 261
259 260 260 259 260 257 256 256 256 258 257 257 257 258 258 258 257 256 256 255 255 255 255 255 256 255 258 261 263 265 263 259 258 258 258 257 256 256 255 254 254 253 254 254 254 253 253 252 253 253 253 253 253 252 251 251 252 251 252 253 254 255 256 255 255 255 256 257 258 259 260 260 261 261 261 262 261 260 259 259 259 259 259 260 260
258 257 257 257 258 257 257 258 258 257 258 257 258 258 257 257 256 256 256 256 256 255 253 254 255 254 255 260 261 263 262 260 260 260 260 259 258 257 256 256 255 255 254 254 254 253 253 253 253 254 253 254 253 253 253 253 251 252 252 252 254 254 255 255 256 256 256 257 257 259 259 260 260 259 259 260 261 260 259 258 258 258 259 259 259
257 256 256 255 256 256 258 258 258 258 258 257 257 257 256 256 256 255 255 254 254 254 254 254 254 255 254 256 258 257 255 255 254 256 256 256 257 256 256 255 254 253 253 253 253 253 252 253 253 253 253 253 253 250 253 253 252 252 252 252 253 254 255 255 255 254 254 255 257 258 259 260 260 259 259 260 261 261 260 259 259 258 258 258 258
255 256 256 257 257 257 257 257 257 257 256 256 256 256 255 255 254 253 253 253 254 254 254 254 254 254 253 254 253 253 253 253 253 253 254 254 255 255 255 254 253 253 252 253 252 251 251 252 252 252 253 253 253 252 252 252 251 252 253 252 252 253 253 254 254 253 254 255 257 257 258 259 258 259 259 260 261 261 261 260 258 259 258 258 258
255 256 257 257 256 256 256 256 256 256 255 255 254 253 252 252 251 251 252 252 252 252 252 252 252 252 253 253 253 252 253 252 252 253 253 253 254 254 255 254 253 252 252 253 252 251 252 252 252 252 252 252 252 252 252 251 252 252 252 252 253 253 254 254 253 254 254 255 256 257 258 258 258 259 260 260 261 261 260 259 258 257 257 257 257
257 257 257 256 256 256 255 254 253 252 252 251 251 250 250 250 250 251 251 252 252 252 252 252 251 251 252 251 252 252 252 252 252 252 252 252 253 253 253 253 252 253 253 253 251 253 252 252 252 252 252 252 252 252 252 252 251 252 252 252 253 253 253 254 254 254 254 255 257 257 257 257 258 258 260 261 261 260 260 259 259 258 257 257 257
256 256 255 254 254 253 252 251 252 253 250 250 250 250 250 250 250 250 249 250 251 251 250 250 250 251 250 251 251 252 252 252 252 252 252 253 253 253 253 252 252 253 253 253 253 253 253 252 251 251 251 252 252 252 252 252 251 251 252 252 252 253 254 255 254 254 254 254 255 256 256 257 258 259 260 261 260 260 259 259 259 258 257 257 257
253 253 252 251 251 251 251 250 250 250 250 248 249 249 249 249 249 249 249 249 250 250 250 250 250 249 250 251 250 251 251 250 251 251 252 252 253 253 252 252 252 252 252 252 253 253 252 252 251 251 251 251 252 252 252 252 252 252 252 252 253 255 255 256 255 255 256 256 255 255 256 257 258 259 260 260 260 260 260 259 259 258 258 257 256
250 250 250 251 251 250 250 249 249 248 248 248 248 248 248 248 248 249 250 249 249 249 250 249 250 250 250 250 250 251 250 251 251 251 251 251 252 252 251 251 251 251 251 252 252 252 252 251 250 250 251 251 251 252 252 252 252 252 252 252 254 255 255 256 256 256 256 255 256 256 257 258 259 260 261 260 259 260 260 260 259 259 258 257 257
251 250 250 250 249 249 249 248 248 248 247 248 247 247 248 248 249 248 248 248 249 250 249 249 249 249 249 250 250 251 251 251 251 251 251 252 252 252 251 251 251 251 251 251 251 251 251 251 251 251 251 251 252 252 252 252 252 252 253 254 255 255 256 256 256 257 258 258 258 259 259 260 260 260 260 260 260 260 260 260 260 259 258 257 257
Wind_Speed
8 8 8 8 10 10 9 8 8 7 7 7 8 7 6 6 6 6 5 6 5 5 5 5 4 4 5 4 4 4 4 4 3 3 3 4 4 4 4 4 3 3 3 3 3 3 3 4 4 4 4 4 5 5 5 5 5 5 5 5 6 5 5 6 10 14 14 11 11 12 8 10 11 7 8 11 10 9 11 11 11 11 11 11 11
9 9 8 9 9 9 8 6 7 7 8 7 7 7 6 6 6 5 6 5 5 5 5 4 4 5 4 4 4 4 4 3 3 3 4 4 3 3 3 3 3 3 3 3 4 4 3 4 4 4 4 4 5 5 5 5 5 6 6 5 6 6 3 5 7 10 16 15 14 11 8 8 12 8 9 13 12 10 11 10 8 10 12 12 11
9 9 9 9 8 7 8 7 7 8 8 7 7 6 6 5 5 6 6 5 4 5 5 5 5 5 4 4 5 4 4 4 3 3 3 3 3 3 3 3 3 3 4 4 4 4 4 3 4 4 4 5 5 5 5 6 5 6 7 5 5 6 5 5 7 11 14 16 13 13 10 7 10 13 11 9 10 9 10 10 10 10 10 11 11
9 9 9 9 8 8 8 7 8 8 8 7 8 6 6 5 5 6 5 5 6 4 4 4 4 4 5 4 4 4 4 3 3 3 3 3 3 3 3 3 3 3 3 3 4 3 4 4 4 5 5 6 6 6 6 5 6 6 6 6 6 8 7 6 6 8 10 14 14 10 10 10 9 9 9 10 9 9 9 11 10 9 10 9 9
9 9 10 11 9 9 9 8 9 9 8 7 8 7 7 6 5 6 6 6 4 5 4 4 4 4 5 4 4 4 3 3 3 3 3 3 3 3 3 3 3 3 3 3 4 3 4 4 5 5 5 7 7 6 6 7 7 6 8 7 7 7 6 7 8 8 10 13 14 10 9 8 7 9 8 10 10 9 9 10 10 9 9 8 8
10 10 10 11 10 10 10 9 10 10 9 8 9 7 7 6 6 5 6 6 5 4 4 3 4 4 4 4 4 4 3 3 2 3 3 3 3 2 2 2 2 2 2 3 3 3 3 4 4 5 5 6 7 7 7 8 7 7 8 9 9 9 10 10 9 9 10 12 12 14 11 11 12 10 10 9 11 12 11 10 8 8 9 9 8
10 11 11 11 11 11 11 11 10 10 9 9 7 7 7 6 6 6 5 6 6 5 4 4 3 4 4 4 4 3 3 2 2 3 3 2 1 1 0 1 1 1 2 3 2 3 3 4 4 5 5 6 7 7 8 10 8 10 10 10 10 10 10 10 10 11 11 12 13 12 13 11 10 13 12 10 10 10 12 12 10 8 8 9 10
12 12 11 10 10 11 11 10 10 9 8 8 8 7 6 6 5 5 6 6 5 4 4 4 3 4 3 3 3 3 2 1 2 3 2 1 1 0 0 0 1 1 1 2 2 3 3 4 4 4 5 5 7 9 9 9 9 10 9 9 10 10 10 9 10 11 12 12 12 14 12 13 12 12 14 12 11 9 7 9 12 13 11 10 9
13 12 11 11 11 11 10 8 8 9 9 8 8 7 7 7 6 6 5 5 5 4 3 4 4 4 3 3 2 2 3 1 2 2 1 1 2 2 0 0 1 1 2 2 3 3 3 3 3 3 7 11 14 12 12 11 9 9 9 9 10 10 9 8 9 10 8 7 10 13 13 14 13 14 15 13 14 14 11 10 10 11 11 11 11
13 12 12 12 11 10 10 9 9 9 9 9 8 8 7 7 7 6 6 5 5 4 3 3 4 4 4 3 2 1 1 1 1 3 2 3 2 2 1 1 2 3 5 5 5 3 3 3 4 11 13 13 13 13 13 13 13 10 9 9 9 8 8 8 8 7 8 9 11 12 13 12 13 14 15 15 15 15 14 14 15 14 13 12 11
12 13 13 11 11 10 10 10 10 10 10 9 8 9 8 7 7 7 6 5 5 4 3 4 4 3 3 3 1 1 1 0 3 3 1 1 2 1 0 2 3 3 4 5 5 6 5 5 4 7 9 9 8 13 13 14 13 13 14 13 12 9 8 9 8 8 9 10 10 10 10 13 15 14 14 15 13 14 13 12 13 14 14 13 13
13 12 11 11 11 11 11 11 11 10 9 9 8 7 7 7 7 6 6 6 5 4 4 4 4 3 3 3 2 1 0 3 3 2 1 1 1 1 0 1 2 3 3 4 5 5 5 4 4 4 4 6 7 6 9 12 13 13 14 14 14 16 16 12 11 10 9 10 11 9 10 12 13 14 14 13 14 13 12 13 13 15 14 13 11
12 11 11 11 11 11 11 11 10 9 9 9 8 8 8 8 7 7 7 5 5 5 4 5 4 3 4 3 2 1 1 4 3 1 1 1 1 1 1 1 1 3 4 4 5 5 4 5 4 4 4 11 9 7 6 7 12 17 18 18 17 18 19 21 20 15 13 13 12 13 11 12 10 10 11 14 14 15 15 13 13 13 13 13 12
11 11 11 11 11 11 11 11 10 10 8 8 8 9 9 9 7 6 6 5 5 4 4 6 5 4 4 3 3 1 2 5 4 2 1 1 1 2 3 3 2 2 3 4 4 5 5 5 5 5 5 6 7 8 8 9 9 9 9 9 9 13 17 20 22 24 21 14 13 14 13 11 13 12 15 14 15 14 13 12 13 14 14 15 16
11 11 12 12 11 10 11 11 11 9 9 9 9 9 9 7 8 7 7 7 7 7 7 6 5 4 4 3 3 3 4 7 4 2 1 0 2 4 4 2 1 2 3 4 4 4 5 6 6 7 7 7 8 11 11 10 9 10 10 9 9 9 9 9 10 11 11 10 11 13 14 13 13 14 13 10 11 11 11 12 13 14 14 13 11
12 12 12 11 12 12 11 11 10 9 10 9 9 10 9 9 10 7 6 5 4 4 4 4 5 5 4 4 4 4 5 6 3 2 1 1 0 5 1 0 1 2 3 4 4 5 6 6 6 7 7 8 13 20 17 13 11 9 9 9 9 7 8 10 17 19 15 13 13 14 13 15 19 16 17 16 14 12 11 10 10 9 10 10 11
13 14 12 11 12 12 12 12 11 11 11 11 11 11 11 9 7 6 7 6 7 6 7 5 4 5 4 4 4 4 4 5 3 2 2 2 2 2 2 2 2 2 4 5 5 6 6 7 7 7 8 9 15 21 20 17 9 11 10 9 8 9 10 10 15 20 21 21 22 24 25 26 26 26 25 25 18 15 10 10 10 11 11 11 10
14 12 12 12 14 14 12 12 12 11 11 13 12 10 7 5 7 8 9 9 8 8 6 5 4 4 5 5 4 4 4 5 5 3 4 4 4 4 3 2 2 3 4 6 6 6 8 14 13 9 9 9 15 17 18 14 8 9 8 8 10 10 9 9 8 8 15 18 20 21 21 20 21 21 20 20 20 15 8 9 9 9 10 10 12
12 13 14 12 10 9 9 10 12 12 13 12 11 11 10 10 7 6 6 6 6 5 5 6 4 3 4 4 6 5 4 4 5 5 5 6 5 3 4 3 4 4 5 6 6 6 7 9 13 12 10 11 18 17 18 14 9 6 6 8 8 9 10 7 8 9 9 10 11 11 12 14 10 9 11 19 18 14 8 8 7 7 9 9 10
14 12 9 9 9 10 10 11 11 12 12 9 8 8 6 7 8 8 5 6 6 5 5 5 5 5 4 4 4 3 4 3 4 7 7 7 8 5 5 4 4 5 6 6 5 5 6 6 7 9 15 16 15 17 17 17 10 5 5 5 8 10 5 6 9 10 9 8 9 8 9 9 8 8 8 8 9 8 9 8 8 7 8 8 9
7 7 7 8 8 10 8 10 12 9 8 9 8 6 7 8 8 7 7 6 5 5 5 5 4 4 3 3 4 4 4 4 5 8 8 9 10 8 5 5 5 6 6 6 6 6 5 2 1 9 15 14 15 16 16 15 13 6 5 5 8 11 12 6 10 13 8 8 8 8 8 8 8 7 7 7 8 8 8 9 8 8 8 8 9
7 7 8 9 9 9 9 7 7 9 8 9 9 8 5 6 7 7 6 7 7 6 5 4 5 4 3 4 4 5 5 8 4 8 9 10 10 11 5 5 7 6 7 5 5 3 1 2 2 9 14 14 15 15 15 13 14 6 8 14 17 17 11 6 6 6 7 7 8 8 8 8 8 8 8 7 7 8 9 8 8 8 8 8 9
7 8 8 9 9 9 8 9 9 8 9 9 10 9 7 7 6 7 7 7 7 7 6 5 4 5 4 5 4 4 4 5 10 7 9 10 11 11 10 8 9 6 3 5 4 2 2 2 5 12 13 14 14 14 13 14 10 8 15 16 16 17 12 6 7 7 7 7 7 8 8 8 9 9 9 9 9 9 9 8 9 9 9 9 11
7 8 8 8 8 8 8 8 8 7 9 9 8 9 9 7 7 7 7 8 7 7 5 5 4 4 6 5 4 4 4 5 7 11 9 11 11 11 11 10 10 5 6 3 2 3 2 3 6 13 12 13 13 12 12 11 9 14 14 16 16 14 7 8 6 6 7 7 7 8 8 7 7 8 9 9 9 10 11 10 10 10 10 10 11
8 8 9 8 8 7 7 7 8 8 8 10 10 9 8 8 8 5 7 6 6 7 6 6 6 6 5 6 5 4 4 5 5 8 11 10 11 11 10 10 9 10 6 2 2 1 7 11 12 11 11 12 13 12 8 10 13 13 14 15 13 6 6 6 6 6 7 8 8 8 8 7 7 8 9 10 10 9 9 9 9 8 8 9 11
9 9 8 8 8 8 9 6 6 7 8 7 8 9 11 10 9 8 7 7 7 7 6 6 6 6 6 5 5 5 4 4 5 5 5 7 8 10 10 9 9 10 9 6 9 11 11 11 11 10 9 9 5 3 3 5 12 13 13 11 5 6 5 6 6 6 7 8 8 9 8 8 8 9 9 8 8 9 10 11 12 11 11 11 12
9 8 9 8 7 8 10 9 8 6 6 5 5 6 6 7 8 8 8 8 7 6 6 7 6 6 6 6 5 4 5 5 5 5 5 6 5 5 5 5 8 9 7 3 6 6 8 7 5 7 7 10 9 8 7 8 6 5 4 4 4 5 6 4 5 7 7 8 8 8 8 7 7 8 9 9 9 9 9 10 10 10 11 11 11
10 10 10 9 8 9 9 9 10 8 7 7 8 7 6 6 8 10 11 10 9 9 8 8 8 8 7 6 5 4 5 5 6 6 6 6 6 5 4 4 4 5 6 5 5 6 3 1 3 3 3 3 4 2 3 3 4 5 5 4 5 6 7 9 8 5 6 7 8 8 7 6 8 9 9 9 9 9 9 9 8 10 10 10 9
5 5 5 6 7 6 7 7 8 8 7 6 6 6 8 9 9 6 5 5 7 9 9 8 7 7 7 7 7 6 6 7 8 7 9 9 8 6 5 5 6 6 8 10 6 3 2 1 3 5 3 3 4 5 5 4 4 3 4 5 5 5 5 5 6 7 7 7 8 8 8 7 8 8 8 9 10 10 9 9 9 9 10 8 8
6 7 7 7 6 6 6 6 6 7 7 7 7 5 6 10 7 6 6 9 13 10 9 7 7 6 6 6 7 8 8 7 8 13 15 16 16 16 14 13 12 8 10 11 4 3 1 1 3 3 4 3 4 4 5 5 6 6 5 5 6 6 5 5 5 6 7 7 8 8 7 7 8 8 8 9 10 9 10 11 10 9 8 9 10
7 7 7 8 8 8 7 7 7 7 7 7 7 7 5 7 14 15 11 10 12 14 14 12 10 11 8 6 7 12 10 9 10 11 14 15 15 14 12 12 12 12 10 5 3 3 4 3 4 3 3 2 3 5 4 4 5 5 6 5 4 5 7 5 6 7 7 7 8 7 7 7 8 7 8 8 10 10 9 9 7 8 8 9 10
9 9 8 7 8 8 7 8 8 8 7 6 7 7 7 6 5 11 15 13 13 14 14 14 13 12 13 11 7 5 11 13 13 14 15 15 13 12 13 13 12 12 11 10 2 4 3 3 4 5 3 3 4 4 3 4 5 5 5 6 6 4 5 6 7 6 7 7 8 8 7 7 7 7 7 8 10 9 9 9 9 10 10 9 9
9 7 8 8 8 8 8 8 8 8 8 8 7 6 7 7 8 6 7 13 14 13 13 13 14 14 13 14 15 13 11 11 13 14 15 14 14 13 13 14 13 12 10 3 3 4 3 4 5 5 4 5 5 3 4 3 5 5 5 5 6 6 6 7 8 7 7 8 7 7 8 8 8 8 8 8 9 9 10 10 9 9 9 9 10
8 8 9 9 9 8 8 7 8 7 6 6 6 6 6 6 5 6 6 4 6 9 12 13 13 13 13 15 15 16 16 17 16 15 15 15 14 13 12 9 13 13 8 3 5 5 5 4 5 5 5 5 4 3 3 3 3 4 5 5 5 6 7 6 6 7 7 7 6 7 7 7 7 7 8 8 8 8 8 9 9 9 10 10 10
5 6 9 8 7 7 7 7 7 6 6 6 6 7 6 5 5 6 6 7 7 7 5 3 5 7 7 9 13 14 14 15 16 15 15 14 13 13 13 6 4 1 2 1 2 5 6 6 6 6 4 5 5 4 4 3 3 3 4 6 6 6 6 6 6 7 7 6 7 7 7 8 7 6 7 9 9 9 10 10 10 9 9 11 11
4 4 5 6 5 5 5 6 6 6 6 6 5 5 3 4 4 4 4 4 4 5 4 4 3 5 8 7 8 11 13 14 13 13 13 14 14 13 7 5 5 5 5 4 4 6 4 5 5 6 5 6 4 5 5 4 4 4 4 4 6 6 6 6 7 6 6 6 7 8 8 7 6 7 7 8 8 8 9 10 10 10 11 10 10
5 4 4 4 4 4 4 5 5 5 5 5 5 4 4 3 2 3 3 5 4 2 4 3 3 5 5 3 6 9 10 11 12 13 15 14 14 9 6 5 6 6 5 6 4 4 5 7 5 5 5 6 6 6 5 5 4 4 4 4 5 6 6 6 6 6 7 7 6 7 7 7 7 6 7 8 9 8 8 9 10 11 12 14 14
5 5 5 4 4 5 5 5 5 6 5 4 4 4 4 4 4 4 4 4 4 5 5 5 3 5 6 6 2 2 5 9 10 9 7 7 5 1 4 5 5 6 7 6 5 4 6 6 6 6 6 5 6 6 5 5 4 4 4 4 5 6 10 9 9 7 6 6 6 6 7 7 6 6 7 8 9 8 9 9 9 10 11 13 10
3 5 8 8 6 5 5 5 6 5 5 5 5 5 5 5 4 4 4 5 4 4 4 5 6 6 6 3 3 3 2 3 3 7 6 6 5 4 4 5 5 5 5 6 4 4 5 7 7 5 6 6 6 6 6 6 4 5 4 4 5 5 6 5 6 5 5 6 6 6 7 7 6 6 6 7 8 8 8 9 9 9 10 9 9
5 4 6 8 5 6 5 6 4 5 4 5 4 4 3 3 4 4 4 4 4 3 3 5 6 6 4 1 3 2 4 6 6 6 6 6 6 5 5 6 6 6 6 6 6 6 6 6 6 6 6 5 6 6 6 6 6 5 4 4 4 6 6 5 6 6 5 6 6 7 7 7 6 6 7 7 7 7 8 8 9 9 9 10 11
5 5 5 6 7 6 5 5 4 4 4 4 3 3 4 3 2 2 3 5 4 4 4 5 6 5 4 6 10 10 7 6 6 6 6 7 5 5 5 6 6 6 6 6 6 6 6 6 6 6 6 6 6 6 6 6 6 5 5 4 4 6 6 6 6 6 6 6 6 7 7 7 7 7 8 8 9 8 7 7 7 8 9 9 9
5 5 6 5 6 5 5 4 4 3 3 3 2 3 2 2 3 4 5 4 5 5 5 5 5 5 7 13 12 15 9 7 7 7 6 6 6 6 6 6 6 6 6 6 6 6 6 6 6 6 6 6 6 6 6 6 6 6 6 5 5 5 6 6 6 5 6 6 6 6 7 8 8 8 9 10 8 7 7 7 7 8 8 8 9
5 5 4 5 5 4 4 4 4 4 4 4 4 3 4 5 5 5 5 5 4 4 4 5 5 4 5 9 11 12 7 4 3 5 5 5 5 6 6 7 7 7 6 6 6 6 6 6 6 6 6 7 6 6 6 7 6 6 6 5 5 6 7 7 6 6 5 5 6 7 8 8 7 7 8 9 8 7 7 7 7 7 8 8 8
5 5 5 5 5 4 3 4 4 4 5 4 4 3 3 3 3 3 4 4 4 4 5 5 5 5 5 6 6 6 6 6 5 5 5 5 5 5 5 5 5 5 6 6 6 6 6 6 7 7 6 6 6 5 6 6 6 6 7 6 5 6 6 7 6 6 5 5 7 8 8 7 7 7 9 10 8 8 8 7 7 7 8 7 8
5 5 5 5 5 5 5 4 4 3 2 2 3 3 3 3 4 4 3 4 5 5 5 5 5 5 6 6 5 6 6 6 7 7 6 6 6 6 6 5 5 6 6 6 6 5 5 7 7 6 7 6 6 6 6 6 5 6 7 7 6 7 7 7 7 5 5 6 7 9 8 7 6 7 8 8 8 8 8 8 7 7 8 7 7
5 5 4 5 4 3 4 3 3 4 4 4 4 3 3 3 3 3 5 5 5 5 5 5 5 5 6 6 6 6 6 6 6 6 7 6 6 6 6 5 5 5 6 6 6 6 6 6 6 7 7 7 6 6 6 6 6 7 7 7 7 7 7 6 5 5 6 6 7 7 7 7 7 8 10 9 8 8 8 8 6 6 6 7 8
4 4 5 5 5 3 3 4 4 3 3 2 2 3 3 4 4 4 6 6 5 6 5 5 5 6 6 6 6 6 6 6 6 6 6 6 6 6 6 5 6 6 6 6 5 6 6 7 6 7 7 6 6 7 7 6 6 6 6 7 7 7 6 6 6 6 7 7 7 7 8 8 9 9 11 10 8 8 8 8 8 8 7 6 7
4 4 4 4 4 4 4 4 4 4 4 4 3 4 4 4 4 5 6 5 5 6 6 6 6 6 6 6 6 6 6 6 6 7 6 6 6 6 6 6 6 6 6 6 6 6 6 6 6 6 7 7 7 7 7 6 6 6 6 7 6 6 7 7 6 7 7 7 7 8 8 9 9 9 10 9 7 8 9 8 8 7 7 7 7
4 4 4 4 3 4 5 5 5 4 5 3 3 3 5 3 4 5 5 6 6 6 6 6 6 6 6 6 6 6 6 7 6 6 6 6 6 6 6 6 6 6 6 7 7 7 6 6 7 6 7 7 6 7 7 7 7 7 7 7 7 10 12 13 9 8 8 8 7 7 8 9 10 11 10 8 8 9 9 8 7 8 7 6 6
3 3 3 3 3 3 3 4 3 3 4 3 4 4 4 5 5 5 5 5 6 6 6 6 6 6 6 6 7 7 6 6 6 6 6 6 6 6 6 6 6 6 6 7 7 7 6 6 6 6 6 6 7 7 7 7 7 7 7 8 10 12 12 14 15 15 11 7 8 8 9 9 10 10 8 7 8 9 9 8 8 7 7 7 7
4 3 3 2 2 2 3 4 4 3 4 4 5 5 4 5 6 5 5 5 6 6 6 6 6 6 6 6 7 6 6 6 6 6 6 6 6 6 6 6 6 6 6 7 7 7 7 7 6 7 6 6 7 7 7 7 7 7 9 13 15 14 15 14 10 12 16 13 9 9 9 10 9 8 7 8 8 8 8 8 9 8 7 7 6
Wind_Direction
136 138 136 140 141 144 143 141 136 131 129 129 128 130 131 130 132 138 125 126 129 120 119 120 118 116 115 108 105 101 92 71 62 63 61 51 38 47 26 31 26 352 1 340 341 346 345 334 320 313 313 319 313 316 313 311 312 305 305 302 300 304 300 290 291 293 293 292 296 305 336 333 316 336 336 326 332 330 320 315 318 318 316 312 312
146 146 146 148 147 145 142 138 134 132 129 129 129 134 138 137 142 131 127 136 127 128 121 123 120 120 116 109 102 101 92 80 62 65 66 59 40 42 29 20 14 352 357 348 343 339 334 324 315 314 309 314 314 314 314 317 317 317 313 312 302 307 318 315 298 296 295 302 299 308 324 346 314 339 335 324 324 325 313 313 318 315 311 310 307
151 149 149 149 148 144 139 139 136 133 131 133 136 139 142 142 140 133 135 131 123 124 129 125 126 120 114 110 102 94 89 74 63 68 64 80 63 35 23 19 12 2 2 349 341 332 335 329 318 322 324 321 316 314 318 318 320 315 312 318 316 314 319 311 303 296 295 294 302 312 325 339 321 321 325 318 311 312 313 314 312 308 300 301 302
150 150 151 148 145 143 143 142 137 139 139 145 145 147 144 145 144 136 139 132 127 128 123 127 123 121 116 107 100 100 81 77 58 67 81 78 65 42 21 16 10 6 357 343 336 341 333 332 324 329 324 322 320 323 321 321 319 318 316 314 309 306 305 300 287 287 295 297 304 312 319 327 319 310 312 306 307 313 307 301 299 295 298 301 308
152 154 153 150 152 149 149 150 149 151 152 154 152 149 147 144 141 141 136 135 137 134 128 121 126 125 121 121 113 101 100 94 75 62 74 73 65 45 19 21 6 358 340 330 334 335 328 325 320 327 328 321 320 322 324 323 320 317 309 308 303 299 299 302 300 293 293 295 301 308 321 316 312 307 309 314 314 306 299 297 299 300 301 303 306
156 156 159 157 159 158 157 157 160 160 158 157 157 157 151 145 140 137 138 137 134 137 141 136 136 133 126 127 121 111 102 101 89 98 92 71 58 38 27 19 351 333 322 325 325 320 323 321 322 324 326 322 318 321 318 316 312 307 308 311 314 313 312 309 307 305 302 299 302 308 317 322 320 313 314 314 313 311 305 299 295 297 302 304 298
158 162 166 166 164 166 166 168 165 164 163 161 158 157 155 149 139 139 136 137 139 142 134 133 137 128 130 115 116 122 109 99 98 107 96 83 77 67 32 329 303 325 312 303 309 322 318 319 318 320 320 320 317 313 315 319 322 320 318 316 316 314 311 309 308 307 304 303 304 305 308 313 317 313 311 307 298 293 299 305 304 300 298 299 302
164 168 170 172 172 172 173 169 167 165 161 158 159 156 147 141 137 134 129 134 140 145 146 145 146 125 121 113 127 123 123 101 113 128 125 151 149 180 202 202 295 294 290 306 322 315 313 311 309 313 317 307 311 321 326 323 322 318 320 319 316 315 312 310 308 305 301 295 298 307 306 308 311 304 304 306 300 289 281 298 302 306 303 298 291
170 173 175 176 179 174 170 168 165 161 160 156 153 153 151 145 141 134 130 135 136 139 143 142 132 123 116 120 109 121 142 155 146 153 171 226 176 152 138 314 297 309 319 333 318 309 300 302 302 311 318 323 324 322 320 319 320 319 322 321 316 311 307 300 296 291 279 274 294 302 300 302 303 307 307 306 305 303 304 296 283 288 293 295 290
172 176 180 182 177 175 171 167 165 162 160 162 161 156 150 146 142 138 138 139 137 138 150 142 130 131 127 135 150 142 133 135 204 232 230 161 151 130 62 328 345 338 334 328 320 310 309 315 331 331 327 324 322 320 321 325 324 320 316 317 314 311 307 309 308 306 304 301 298 302 299 295 302 302 301 300 300 301 300 300 297 295 294 288 282
180 180 183 181 178 173 170 171 165 167 167 160 158 157 152 149 147 141 141 144 145 155 156 144 139 133 143 154 174 168 144 180 237 248 251 328 111 129 22 350 335 336 321 319 316 321 325 336 336 321 319 314 313 319 322 323 322 321 318 314 310 305 300 297 291 289 288 281 284 282 281 289 297 296 294 297 297 293 290 288 289 294 294 299 301
182 184 184 179 179 176 175 169 169 169 164 167 162 158 150 149 151 150 150 151 158 156 158 155 143 143 146 158 176 195 131 252 250 244 272 322 355 15 347 342 329 317 320 316 321 319 319 316 303 298 292 300 301 297 300 305 314 314 309 303 299 298 296 294 295 292 283 281 283 277 280 284 290 292 291 291 291 285 282 285 288 289 292 292 291
184 185 184 183 183 179 174 172 171 169 172 164 159 152 155 157 157 159 166 162 153 165 177 153 155 155 155 171 184 195 183 263 260 253 245 308 331 346 278 279 327 325 320 320 310 307 307 301 292 288 280 292 297 288 278 277 281 281 281 286 288 287 289 293 293 291 293 290 290 289 284 287 280 273 276 285 284 288 288 287 285 285 284 282 283
185 187 186 189 185 180 175 172 173 173 164 159 157 159 164 173 167 161 149 152 164 172 165 167 165 164 165 172 193 209 216 257 246 239 223 275 299 319 102 83 19 319 299 297 298 303 299 290 287 284 282 285 286 287 280 269 260 260 261 258 258 264 271 278 283 287 287 284 282 281 280 271 272 272 278 280 289 291 292 289 295 295 295 295 299
189 190 191 191 183 179 177 176 174 169 165 161 162 167 171 164 162 164 167 169 173 180 178 178 181 167 166 170 188 218 227 246 236 229 230 194 290 92 85 33 291 266 280 286 288 281 273 271 275 277 281 288 282 285 289 290 285 280 275 272 271 267 272 277 278 271 273 273 265 264 272 277 273 278 281 282 277 285 298 305 307 302 298 295 289
194 193 194 188 184 183 179 179 175 166 163 165 169 169 172 175 170 167 160 162 162 160 189 173 178 176 177 183 204 222 244 246 245 234 230 245 168 99 83 214 242 264 273 262 254 254 259 265 269 273 275 281 283 290 297 294 286 297 309 310 306 304 301 306 307 306 304 300 299 300 299 304 314 317 322 324 326 323 316 314 305 301 311 312 305
199 197 193 186 187 185 185 180 173 168 169 171 178 178 173 175 169 159 161 171 172 186 192 189 176 172 184 195 202 227 236 257 255 245 246 243 176 125 180 178 233 238 246 246 251 256 259 263 262 268 276 273 279 292 302 317 328 320 313 318 330 330 321 313 310 309 309 312 318 324 324 326 325 323 324 326 325 329 334 328 325 331 319 311 310
201 193 192 190 191 189 186 176 171 172 174 183 183 183 177 163 170 171 171 171 182 191 186 179 178 173 188 205 202 219 238 256 258 250 242 227 206 168 163 169 218 228 245 255 251 253 256 265 272 271 277 274 285 311 322 322 315 318 326 339 333 324 310 303 299 321 337 333 329 330 328 329 331 330 328 328 331 339 342 325 322 326 320 318 315
197 197 200 195 186 177 174 175 177 177 183 187 179 176 179 177 168 163 171 170 177 171 178 174 185 196 201 200 219 219 226 250 261 252 232 224 210 174 181 192 216 237 247 256 254 248 257 262 273 287 299 308 317 317 316 325 325 338 1 339 325 311 297 322 349 337 333 335 329 328 324 326 324 320 317 325 329 332 322 310 317 317 314 313 311
201 199 187 174 175 173 175 178 180 180 184 174 173 177 158 152 167 167 168 164 166 178 175 172 183 212 208 202 219 223 222 242 253 245 229 227 217 191 181 206 227 241 249 252 259 259 254 264 276 306 314 312 310 314 322 328 330 17 1 333 305 293 317 5 346 341 328 318 311 312 307 306 310 312 310 310 314 312 313 311 309 306 299 299 298
183 176 164 162 167 174 174 179 179 181 174 169 161 156 166 167 159 161 163 159 158 171 179 182 188 213 215 226 218 232 215 229 249 242 233 223 222 217 189 207 222 236 242 253 256 258 254 244 246 318 314 308 311 322 327 328 332 0 331 278 288 319 344 6 336 329 316 310 307 308 306 306 307 307 306 311 311 308 304 302 298 295 293 293 292
161 153 162 169 170 170 175 172 167 160 151 148 157 167 168 157 163 160 158 162 170 181 180 185 194 221 239 237 229 231 233 227 224 250 232 227 226 231 205 208 227 230 246 233 238 218 239 275 280 306 307 312 323 327 329 330 339 341 306 323 333 336 347 351 324 316 308 308 306 307 309 310 314 316 314 312 308 306 303 298 296 291 285 277 277
156 159 160 165 172 171 168 164 159 155 159 164 160 163 160 157 160 158 160 165 172 179 185 185 194 226 252 249 237 234 234 239 233 227 237 228 230 233 234 231 249 259 261 268 243 220 230 273 298 292 309 323 328 329 331 337 339 321 330 335 337 343 349 332 323 317 312 309 310 307 311 312 315 318 318 320 317 312 308 301 297 292 282 275 268
150 158 166 168 163 165 161 158 155 157 159 156 159 157 165 164 162 171 170 168 171 180 192 185 196 217 231 248 244 235 233 221 244 232 228 234 235 233 235 242 251 245 246 218 205 235 280 277 273 305 320 326 329 332 336 337 332 333 338 338 344 348 340 328 320 315 310 311 311 311 311 308 304 310 316 316 317 318 312 308 301 295 285 280 275
161 165 170 166 162 156 149 157 161 162 164 161 162 166 164 164 167 180 168 174 176 183 193 184 196 207 213 227 236 232 225 217 231 245 236 233 234 234 237 242 250 263 268 199 212 244 286 295 309 312 318 326 329 334 336 333 335 340 341 343 347 331 327 318 316 317 320 316 313 309 305 307 306 301 308 314 314 312 310 310 305 297 283 271 272
167 175 162 162 160 153 153 155 160 166 167 178 177 174 170 173 174 170 179 184 183 185 188 190 199 200 210 219 222 221 226 224 227 236 247 246 243 240 234 241 258 267 264 253 277 293 299 304 305 311 321 325 330 332 328 329 336 339 338 338 322 316 309 319 315 320 312 311 309 307 304 307 315 318 313 313 319 323 324 322 323 323 325 320 317
168 160 169 160 158 163 166 169 168 169 176 171 171 169 172 174 173 175 180 181 184 191 193 194 197 200 210 216 217 215 229 226 224 232 239 240 247 255 273 281 283 276 270 274 275 282 282 283 285 311 336 328 328 328 330 327 327 317 313 308 308 305 304 297 304 306 305 301 301 298 300 304 310 317 323 327 326 323 325 321 320 319 322 323 316
177 178 170 166 168 174 173 168 167 173 182 178 177 178 187 185 185 188 180 181 180 196 192 197 198 197 203 200 202 213 229 225 221 217 228 224 232 234 234 247 253 246 249 239 228 240 226 14 2 33 355 347 329 331 308 299 295 310 310 311 302 297 304 309 309 296 285 289 289 290 295 313 322 321 321 325 324 324 325 321 320 318 320 316 314
149 150 157 157 173 174 174 169 178 171 175 188 209 197 183 189 197 209 218 197 194 179 187 201 202 202 185 183 183 206 215 225 225 207 216 219 218 222 232 236 240 235 229 238 239 142 112 335 357 343 353 311 318 315 311 316 310 301 307 307 307 311 312 313 312 308 302 303 306 308 307 315 318 318 323 326 329 327 326 323 322 316 316 313 307
152 167 167 171 166 169 173 173 172 176 178 187 189 225 227 212 211 199 204 203 213 215 189 193 196 182 190 207 190 188 200 215 222 222 221 222 225 230 232 235 244 235 225 251 253 138 166 67 281 277 290 299 301 307 309 317 316 322 313 319 320 311 304 301 295 293 299 308 307 306 309 318 317 321 326 327 324 326 326 329 320 318 315 318 317
171 170 173 187 180 176 173 174 180 179 185 182 190 194 210 225 220 217 211 209 214 220 220 218 206 190 185 202 222 221 219 226 232 227 224 228 232 240 251 256 259 263 268 274 265 216 219 255 270 267 263 259 267 272 287 299 300 305 305 308 298 300 302 297 296 299 308 309 307 303 310 313 313 317 324 326 325 324 322 320 314 318 316 317 315
184 190 186 179 173 180 180 178 175 183 186 186 188 188 191 202 236 225 221 220 221 222 225 225 222 217 212 206 191 229 232 235 238 238 237 239 246 251 252 255 260 262 259 265 226 195 170 222 262 264 254 259 259 262 273 282 287 288 298 310 306 298 299 301 303 310 306 304 301 308 314 312 309 313 319 323 325 323 322 323 327 325 321 315 308
187 181 179 176 179 177 179 182 185 185 184 181 187 183 189 192 198 209 227 222 222 222 225 227 228 226 222 220 212 207 215 233 245 244 244 246 246 246 249 255 258 259 261 259 155 237 226 223 235 253 242 252 257 255 262 259 276 286 283 283 294 300 297 292 304 302 302 297 305 314 314 311 309 312 318 322 326 325 326 323 321 319 316 313 317
190 180 181 180 177 186 186 184 183 188 184 183 184 182 193 191 194 186 189 201 223 228 225 224 225 228 232 232 232 236 238 237 243 244 241 241 243 247 249 253 255 253 250 218 217 234 235 232 238 240 244 242 249 251 264 263 268 275 285 282 278 286 291 298 307 304 300 303 313 311 311 306 309 318 322 326 322 319 318 321 322 323 326 324 321
186 182 177 174 182 183 181 180 180 175 176 174 174 185 188 185 182 179 180 189 197 201 207 250 273 267 253 248 249 251 253 254 253 251 248 249 251 250 252 252 240 263 8 61 205 223 223 228 236 244 230 244 249 242 253 258 262 270 277 287 292 289 295 304 302 301 298 312 318 309 306 310 309 316 326 325 324 327 328 327 325 324 322 323 324
171 166 167 174 168 170 173 163 165 173 175 175 174 177 171 172 176 185 183 188 189 193 225 228 245 315 303 290 268 261 259 255 254 251 251 249 247 246 244 225 220 223 233 251 226 238 221 230 229 244 232 241 247 250 244 249 252 255 267 275 285 291 292 295 295 296 311 317 308 310 312 308 312 322 323 317 315 318 322 324 323 324 325 323 324
158 155 159 163 159 148 147 139 149 159 164 151 158 157 158 164 114 125 147 157 165 149 208 260 325 298 293 306 297 290 283 266 256 252 249 246 245 245 237 217 204 219 225 246 236 235 242 246 231 242 239 239 245 242 246 249 248 255 268 273 277 283 280 276 288 309 313 307 307 306 306 305 313 319 323 320 317 317 320 321 323 325 328 326 328
151 153 149 144 141 140 137 142 146 152 137 147 150 150 132 156 169 172 184 167 187 194 205 203 226 238 247 258 22 30 298 286 283 279 284 285 285 27 192 180 188 200 238 241 235 227 241 251 232 229 244 231 244 242 238 250 244 240 250 267 272 267 290 297 302 298 294 296 301 306 306 303 305 313 318 317 314 314 318 322 323 321 322 326 326
119 136 141 143 143 139 140 140 149 140 144 153 158 161 174 171 176 181 177 144 185 192 189 186 212 225 241 257 291 310 307 270 251 250 260 265 269 233 193 192 201 214 229 236 238 235 237 248 244 231 237 235 237 240 235 247 242 238 244 256 271 277 282 280 282 282 290 292 299 301 300 298 300 308 312 310 307 308 312 319 322 321 323 319 318
132 128 138 134 124 131 128 138 135 139 151 139 154 151 141 172 179 177 167 177 200 196 178 215 227 239 240 173 239 235 225 239 239 238 246 254 247 235 209 208 212 220 228 240 239 239 244 249 246 240 243 242 240 244 239 240 242 245 240 248 264 277 276 274 276 282 285 291 293 295 296 296 303 310 307 303 300 303 310 316 317 319 317 317 317
126 135 131 133 133 123 121 130 143 158 157 157 166 169 191 188 157 165 167 204 214 218 227 227 240 249 233 233 243 228 211 228 236 234 230 231 228 224 226 223 219 228 230 232 242 240 239 248 249 242 247 246 243 241 246 244 247 248 245 250 260 271 277 274 272 274 279 284 289 294 299 300 305 309 305 303 304 306 304 304 308 311 313 314 316
133 133 130 128 126 125 133 136 138 126 127 132 152 168 179 172 173 179 199 206 211 217 229 239 243 246 247 250 252 250 236 209 221 232 231 221 221 226 224 226 222 220 224 229 233 240 243 242 245 240 243 249 245 248 244 248 245 245 244 246 254 265 270 268 266 267 274 279 285 292 295 299 301 303 303 303 301 299 301 306 306 309 311 314 317
117 113 113 112 119 137 142 147 135 146 157 164 177 174 171 177 186 196 202 210 216 220 228 247 258 250 250 259 264 265 272 274 235 237 242 229 218 221 219 224 224 222 225 233 232 229 237 241 246 242 238 243 239 236 238 243 241 242 240 240 248 255 264 268 269 269 270 280 284 290 291 290 296 299 298 298 295 297 298 300 304 308 309 312 314
115 111 112 115 121 119 136 146 156 171 169 171 171 164 173 178 190 193 205 222 227 232 230 241 250 257 260 264 268 277 280 277 274 268 263 269 260 247 242 235 236 236 240 239 242 230 231 241 246 249 244 246 243 239 239 242 232 235 238 239 244 251 256 260 261 264 271 282 287 286 283 283 290 296 295 292 290 296 299 300 301 306 311 312 314
132 134 136 135 137 135 129 120 126 135 139 133 144 176 180 188 207 213 213 224 238 238 241 242 249 252 261 258 247 245 249 255 259 261 261 256 261 260 255 251 240 241 243 246 240 232 232 239 244 248 252 247 242 243 243 240 231 232 233 232 233 245 251 254 256 259 266 273 279 282 282 283 287 283 284 284 288 294 296 299 298 304 309 308 313
141 146 146 137 113 115 114 143 153 156 159 180 184 203 215 213 217 225 231 238 240 243 250 251 246 246 246 254 253 248 248 247 250 250 255 257 254 260 259 255 250 243 243 245 243 232 235 235 240 243 247 248 247 244 246 241 240 238 236 230 233 241 247 253 258 262 260 262 267 271 279 280 279 280 284 287 286 290 291 292 290 287 288 299 300
138 140 116 129 151 156 161 152 149 169 174 181 190 203 220 227 229 235 240 235 239 246 249 252 250 248 248 249 250 253 251 248 249 252 250 252 255 256 261 260 259 257 253 249 243 243 241 241 240 240 246 250 251 252 252 248 244 243 241 240 238 243 244 249 248 251 253 255 261 270 274 278 279 277 282 280 276 285 289 287 283 288 289 294 294
138 132 142 148 147 156 165 165 178 187 189 202 210 220 228 233 241 239 244 245 247 248 249 251 247 249 248 253 248 252 253 255 256 254 256 255 257 255 256 257 258 259 264 263 256 248 242 245 243 243 247 252 252 253 253 251 250 244 246 243 242 238 243 246 251 253 250 253 252 257 262 267 270 270 275 273 280 289 289 285 288 286 289 289 293
133 141 147 153 165 174 175 181 190 194 202 207 216 231 236 237 243 246 246 247 247 246 241 247 252 252 248 250 250 251 249 252 252 254 253 255 258 260 259 258 260 260 260 263 262 258 253 251 246 243 243 248 249 251 255 254 255 252 252 251 249 246 251 254 254 253 248 248 252 252 257 260 263 264 263 269 282 284 280 280 283 285 288 287 288
137 148 154 168 173 191 183 187 194 200 202 202 213 231 239 239 247 246 248 248 255 255 253 249 251 252 251 257 254 254 249 250 252 252 253 253 255 252 255 252 256 257 256 260 263 262 260 256 252 251 246 248 249 251 250 251 253 254 255 254 255 256 255 258 260 259 259 254 249 250 248 252 256 262 266 271 276 275 277 279 281 283 284 286 286
151 159 168 177 186 190 190 196 209 214 211 215 220 233 239 244 247 250 252 250 251 255 256 253 255 258 257 254 255 258 259 256 254 256 256 256 255 254 252 252 254 257 259 258 262 262 259 260 259 255 252 249 250 251 250 247 250 250 254 257 259 259 262 264 263 261 258 252 246 242 242 244 253 266 278 276 272 268 271 278 281 280 280 280 281